Погода в Мотриле

Испания     36°44′46″N   3°31′42″W
темп.,
°C
ветер,
м/с
пор.,
м/с
влажн.,
%
обл.,
%
осадки,
мм/ч
давл.,
гПа
погр.,
м
14 мая, пт
пт1423:00+20с55481 0.0 101444
02:00+19ссз554969 0.0 101445
05:00+18с55610 0.0 101354
08:00+18ссв33590 0.0 101441
11:00+22зюз2244100 0.0 1015502
14:00+21ююз434954 0.0 1016626
17:00+19ююв245528 0.0 1016511
20:00+19вюв236621 0.0 1016212
15 мая, сб
сб1523:00+17всв127499 0.0 101813
02:00+17в227251 0.0 101814
05:00+16ссв016846 0.0 101711
08:00+18ссв11585 0.0 101711
11:00+20ю115470 0.0 1017345
14:00+20ююз225935 0.0 1017436
17:00+21юз22521 0.0 1015380
20:00+19з23615 0.0 1015148
16 мая, вс
вс1623:00+20з1253100 0.0 101513
02:00+19сз225754 0.0 101512
05:00+18зсз125420 0.0 101411
08:00+20св11460 0.0 101313
11:00+23зюз22430 0.0 1014250
14:00+24юз22420 0.0 1014462
17:00+24з23361 0.0 1012449
20:00+25з45440 0.0 1011188
17 мая, пн
пн1723:00+23ссз33410 0.0 101219
02:00+23ссв44340 0.0 101221
05:00+22с443595 0.0 101216
08:00+22с44385 0.0 101325
11:00+26ююв33341 0.0 1014414
14:00+25вюв58411 0.0 1016633
17:00+22юв23624 0.0 1016341
20:00+21ююв23685 0.0 1017223
18 мая, вт
вт1823:00+17ююв228810 0.0 101967
02:00+17зсз228815 0.0 102092
05:00+15зсз119223 0.0 101936
08:00+16зсз11896 0.0 102181
11:00+18юз217922 0.0 1022376
14:00+19ю327639 0.0 1022469
17:00+18ююв227870 0.0 1022405
20:00+18юв1279100 0.0 1021220